[[{"header":{"parameterUnit":"m.s-1","parameterCategory":1,"la1":30.2991,"la2":30.254,"lo1":-89.0895,"lo2":-89.0444,"dy":0.0017,"dx":0.0017,"nx":28,"ny":28,"refTime":"2023-09-08T21:00:00:Z","depth":0,"parameterNumber":2,"parameterNumberName":"U-component_of_WINDS"},"data":[0,0,0,0,0,0,0,0,0,0,0,0,0,0,0,0,0,0,0,0,0,0,0,0,0,0,0,0,0,0,0,0,0,0,0,0,0,0,0,0,0,0,0,0,0,0,0,0,0,0,0,0,0,0,0,0,0,0,1.1549,1.155,0,1.1667,1.1668,1.1669,1.1665,1.1663,1.1662,1.166,1.1782,1.1787,1.1791,0,0,0,0,0,0,0,0,0,0,0,0,0,1.1322,1.1326,1.1549,1.155,1.1552,1.1666,1.1668,1.167,1.1665,1.1663,1.1661,1.1659,1.178,1.1786,1.1792,0,0,0,0,0,0,0,0,0,0,0,0,0,1.1428,1.1328,1.1549,1.1564,1.1566,1.1666,1.1668,1.167,1.1666,1.1663,1.1661,1.1658,1.1779,1.1785,1.1793,1.1886,0,0,1.1814,1.1818,0,0,0,0,0,0,0,0,1.1422,1.1437,1.156,1.1563,1.1566,1.1649,1.1633,1.1742,1.1666,1.1628,1.166,1.1657,1.174,1.175,1.1777,1.1892,1.1897,1.1815,1.1819,1.1822,1.1824,0,0,0,0,0,0,0,1.1415,1.1432,1.1596,1.1562,1.1565,1.1565,1.1577,1.1653,1.1696,1.1631,1.1631,1.1645,1.1741,1.177,1.178,1.1899,1.1815,1.1821,1.1826,1.1828,1.2095,1.2098,0,0,0,0,0,0,1.1404,1.1425,1.1592,1.1599,1.1486,1.1571,1.1585,1.1624,1.1695,1.1704,1.1647,1.1644,1.1759,1.1772,1.1784,1.1898,1.1822,1.1829,1.1833,1.2093,1.2096,1.2099,0,0,0,0,0,0,1.1399,1.1419,1.1587,1.1512,1.1534,1.1577,1.1622,1.1628,1.1658,1.1707,1.1715,1.1669,1.1758,1.1774,1.1861,1.1902,1.1832,1.1839,1.2089,1.2094,1.2098,1.2127,0,0,0,0,0,0,1.1393,1.1417,1.1453,1.1513,1.1538,1.1661,1.1625,1.1632,1.167,1.1668,1.173,1.1738,1.1757,1.185,1.1868,1.1911,1.1844,1.2086,1.2091,1.2096,1.2122,1.2131,1.2139,0,0,0,0,0,1.1385,1.1457,1.1455,1.1475,1.1583,1.1663,1.1677,1.1697,1.1673,1.171,1.1741,1.1736,1.1895,1.1859,1.1879,1.1925,1.2083,1.209,1.2096,1.2118,1.2129,1.2139,0,0,0,0,0,0,1.1401,1.1465,1.1463,1.1557,1.1605,1.1662,1.1709,1.1709,1.1764,1.176,1.1783,1.1797,1.1883,1.1913,1.1871,1.2019,1.1986,1.1997,1.1996,1.2007,1.2016,1.2007,1.185,0,0,0,0,0,1.1416,1.1475,1.1528,1.1605,1.1629,1.1665,1.1701,1.1712,1.1762,1.1783,1.1821,1.187,1.1931,1.1971,1.203,1.2126,1.214,1.2168,1.2177,1.2183,1.2192,1.2245,1.2258,1.212,1.212,1.212,0,0,1.1446,1.1488,1.1525,1.161,1.1648,1.1709,1.1682,1.1748,1.1794,1.1793,1.1876,1.1906,1.1963,1.2055,1.2097,1.2082,1.2233,1.2191,1.2196,1.2202,1.2253,1.2266,1.2278,1.2124,1.2123,1.2123,0,0,1.1533,1.1571,1.1639,1.1678,1.1736,1.176,1.1776,1.1834,1.1853,1.1938,1.1938,1.1993,1.2098,1.2138,1.2172,1.2274,1.2272,1.2293,1.2337,1.2389,1.24,1.241,1.2446,1.2459,1.2302,1.2302,1.2302,0,1.1564,1.1656,1.1675,1.1741,1.1779,1.178,1.185,1.1887,1.1961,1.1987,1.1969,1.21,1.2139,1.224,1.2265,1.2292,1.2312,1.2286,1.2397,1.2407,1.2416,1.2451,1.2464,1.2304,1.2304,1.2304,1.2303,0,1.169,1.1754,1.1803,1.1874,1.1917,1.1985,1.2015,1.2056,1.2063,1.2089,1.2174,1.222,1.2289,1.2313,1.2322,1.2416,1.2405,1.2392,1.2359,1.2431,1.2464,1.2478,1.2307,1.2306,1.2306,1.2305,0,0,1.1791,1.1871,1.1889,1.1921,1.1985,1.2035,1.2103,1.2169,1.2204,1.2256,1.2313,1.2402,1.239,1.2429,1.2442,1.2487,1.2564,1.2468,1.247,1.2484,1.2671,1.268,1.2695,1.2563,1.2566,1.2568,1.2666,0,1.1884,1.2004,1.2023,1.2128,1.2188,1.219,1.2249,1.2295,1.2321,1.2375,1.2403,1.2465,1.2445,1.2469,1.2513,1.2545,1.2602,1.2539,1.2617,1.262,1.2602,1.2713,1.2723,1.2813,1.2679,1.2681,1.2683,0,1.2008,1.2062,1.2174,1.2229,1.2255,1.2308,1.237,1.2422,1.2474,1.2489,1.2533,1.254,1.2611,1.2576,1.2674,1.263,1.2664,1.2684,1.2688,1.2696,1.2655,1.2723,1.2842,1.2856,1.2704,1.2702,1.27,0,1.207,1.217,1.225,1.2278,1.2345,1.2382,1.2412,1.2462,1.25,1.2555,1.258,1.2642,1.2676,1.2724,1.2749,1.2721,1.2845,1.2812,1.286,1.286,1.2886,1.2884,1.3012,1.2908,1.2908,1.2908,1.2908,0,1.2171,1.2239,1.2278,1.2327,1.2403,1.2425,1.25,1.2529,1.2574,1.2628,1.2634,1.2686,1.2715,1.2771,1.279,1.2869,1.2884,1.2899,1.2903,1.2898,1.2896,1.292,1.2914,1.2911,1.2911,1.291,1.2909,0,1.2253,1.2282,1.2368,1.2425,1.2441,1.2494,1.2543,1.2591,1.2616,1.2685,1.2703,1.2743,1.2809,1.2838,1.2919,1.2932,1.3022,1.3022,1.3004,1.3005,1.3052,1.3047,1.3199,1.3221,1.3103,1.3104,1.3105,0,1.2315,1.2368,1.243,1.2466,1.2497,1.2557,1.2596,1.262,1.266,1.2724,1.2764,1.283,1.2884,1.2989,1.3026,1.3089,1.309,1.3139,1.3099,1.3093,1.309,1.3087,1.3092,1.3146,1.3147,1.3148,1.3149,0,1.2424,1.2435,1.2491,1.2552,1.2599,1.2648,1.2696,1.2726,1.2758,1.2803,1.287,1.2912,1.2995,1.3061,1.3126,1.3157,1.3159,1.3161,1.3176,1.3171,1.3158,1.3165,1.3023,1.3158,1.3157,1.3156,1.3156,1.3155,1.2498,1.2544,1.2595,1.2657,1.2695,1.274,1.2788,1.2819,1.2875,1.2944,1.2955,1.3027,1.3078,1.3165,1.3199,1.3256,1.3244,1.3265,1.327,1.3275,1.3278,1.3149,1.3268,1.3268,1.3268,1.3267,1.3267,0,1.2606,1.2638,1.2695,1.2762,1.2811,1.2808,1.2861,1.2903,1.2965,1.3013,1.3066,1.3143,1.3207,1.3249,1.3313,1.3351,1.3353,1.3367,1.3364,1.3371,1.3285,1.3266,1.3364,1.3364,1.3364,1.3364,1.3364,1.3364,1.2668,1.2746,1.2763,1.2861,1.2893,1.2963,1.2994,1.3036,1.3074,1.3159,1.3212,1.3239,1.3284,1.3352,1.341,1.3421,1.3444,1.3459,1.3469,1.3387,1.3377,1.3368,1.335,1.3464,1.3464,1.355,1.3551,1.3552]},{"header":{"parameterUnit":"m.s-1","parameterCategory":1,"la1":30.2991,"la2":30.254,"lo1":-89.0895,"lo2":-89.0444,"dy":0.0017,"dx":0.0017,"nx":28,"ny":28,"refTime":"2023-09-08T21:00:00:Z","depth":0,"parameterNumber":3,"parameterNumberName":"V-component_of_WINDS"},"data":[0,0,0,0,0,0,0,0,0,0,0,0,0,0,0,0,0,0,0,0,0,0,0,0,0,0,0,0,0,0,0,0,0,0,0,0,0,0,0,0,0,0,0,0,0,0,0,0,0,0,0,0,0,0,0,0,0,0,0.2292,0.2291,0,0.2195,0.2193,0.2192,0.2085,0.2083,0.2082,0.208,0.1978,0.1977,0.1975,0,0,0,0,0,0,0,0,0,0,0,0,0,0.2384,0.2382,0.2293,0.2291,0.229,0.2195,0.2193,0.2192,0.2085,0.2083,0.2081,0.208,0.1978,0.1977,0.1975,0,0,0,0,0,0,0,0,0,0,0,0,0,0.2321,0.2382,0.2293,0.2225,0.2218,0.2195,0.2193,0.2192,0.2085,0.2083,0.2081,0.2079,0.1979,0.1977,0.1975,0.201,0,0,0.1969,0.1968,0,0,0,0,0,0,0,0,0.2324,0.2317,0.2236,0.223,0.2222,0.215,0.2188,0.2131,0.2086,0.2136,0.208,0.2077,0.2037,0.203,0.2017,0.2005,0.2001,0.1969,0.1968,0.1967,0.1967,0,0,0,0,0,0,0,0.2329,0.2321,0.2254,0.2235,0.2226,0.2199,0.2187,0.2176,0.21,0.2131,0.2123,0.2113,0.2032,0.2019,0.2013,0.1999,0.1969,0.1967,0.1966,0.1965,0.2009,0.2011,0,0,0,0,0,0,0.2344,0.2325,0.2257,0.2251,0.2269,0.2199,0.2186,0.2175,0.21,0.2087,0.2115,0.2109,0.2023,0.2016,0.2009,0.2044,0.1967,0.1965,0.1964,0.2006,0.2009,0.2012,0,0,0,0,0,0,0.2346,0.2339,0.2261,0.2286,0.2274,0.22,0.2188,0.2174,0.2161,0.2088,0.2074,0.2116,0.2021,0.2012,0.201,0.2039,0.1964,0.1963,0.2004,0.2007,0.201,0.2115,0,0,0,0,0,0,0.2349,0.234,0.2354,0.2287,0.2273,0.2265,0.219,0.2174,0.2158,0.2148,0.2085,0.2072,0.2019,0.2014,0.2008,0.2035,0.1961,0.2001,0.2005,0.2009,0.2108,0.2121,0.2132,0,0,0,0,0,0.2353,0.2387,0.2355,0.2347,0.2288,0.2267,0.2258,0.2197,0.2161,0.2173,0.2126,0.2074,0.2037,0.2014,0.2007,0.2034,0.1999,0.2004,0.2009,0.2103,0.2119,0.2132,0,0,0,0,0,0,0.2459,0.2377,0.2341,0.2354,0.2318,0.2248,0.2262,0.2216,0.2189,0.2181,0.2104,0.2091,0.2098,0.2065,0.2042,0.2062,0.201,0.2014,0.2084,0.2098,0.211,0.2118,0.196,0,0,0,0,0,0.2484,0.2474,0.2402,0.2421,0.2405,0.2337,0.2325,0.2281,0.224,0.2224,0.2177,0.2139,0.2118,0.2106,0.2083,0.2103,0.2086,0.2117,0.2129,0.2139,0.2144,0.215,0.2163,0.2029,0.2029,0.2028,0,0,0.2535,0.2489,0.2487,0.2441,0.2408,0.2398,0.2325,0.2318,0.231,0.2223,0.2218,0.2182,0.2134,0.2143,0.2144,0.2116,0.2177,0.2146,0.2155,0.2153,0.2157,0.217,0.2181,0.2032,0.2031,0.2031,0,0,0.2623,0.2588,0.2599,0.2568,0.2518,0.2472,0.2475,0.2412,0.2385,0.2379,0.2313,0.2301,0.2268,0.2236,0.2216,0.229,0.2241,0.2285,0.2348,0.2355,0.2365,0.2374,0.24,0.241,0.2289,0.229,0.229,0,0.2693,0.2677,0.2611,0.2608,0.2589,0.251,0.252,0.2492,0.2437,0.2425,0.2395,0.235,0.2312,0.2311,0.233,0.2316,0.2315,0.2292,0.2369,0.2378,0.2385,0.2409,0.2419,0.2295,0.2295,0.2294,0.2294,0,0.2765,0.2755,0.2769,0.2719,0.2702,0.2706,0.2638,0.2628,0.2585,0.2542,0.2536,0.2488,0.2453,0.2449,0.2407,0.2442,0.2426,0.2384,0.2329,0.2405,0.2426,0.2434,0.2303,0.2301,0.23,0.2298,0,0,0.2919,0.2831,0.2838,0.2813,0.2752,0.2742,0.2741,0.2708,0.27,0.2665,0.2662,0.2634,0.2594,0.257,0.2523,0.253,0.2591,0.2485,0.2483,0.2506,0.2625,0.2658,0.267,0.2557,0.2559,0.256,0.2629,0,0.2996,0.2991,0.2931,0.2942,0.2931,0.2855,0.2853,0.2815,0.2775,0.2758,0.2713,0.2694,0.2643,0.2628,0.2631,0.2583,0.2613,0.2577,0.2552,0.2552,0.2567,0.2681,0.2716,0.2784,0.2637,0.2638,0.2639,0,0.3087,0.3057,0.3068,0.3005,0.2998,0.2999,0.2962,0.2948,0.2902,0.2872,0.2846,0.2792,0.2785,0.2734,0.2722,0.2699,0.2685,0.2659,0.266,0.2656,0.2601,0.2679,0.2804,0.2814,0.2652,0.2651,0.265,0,0.3197,0.316,0.3161,0.3143,0.307,0.3072,0.3041,0.2993,0.2977,0.2944,0.2932,0.2899,0.2881,0.2856,0.2795,0.2763,0.279,0.2734,0.2764,0.2766,0.2774,0.2774,0.2898,0.2765,0.2765,0.2764,0.2764,0,0.329,0.33,0.321,0.3211,0.3218,0.3148,0.3157,0.3119,0.3076,0.3067,0.2999,0.2992,0.2911,0.2894,0.2845,0.2842,0.2835,0.2809,0.2796,0.2816,0.2819,0.2806,0.28,0.2767,0.2766,0.2766,0.2765,0,0.3416,0.3356,0.3352,0.3283,0.3266,0.3275,0.3215,0.3212,0.3167,0.3156,0.3149,0.3078,0.3054,0.299,0.295,0.2917,0.2928,0.2904,0.2944,0.2936,0.2969,0.2967,0.3089,0.3101,0.2961,0.2963,0.2964,0,0.3479,0.3485,0.3417,0.3406,0.3379,0.3363,0.3345,0.3275,0.3259,0.3207,0.321,0.3181,0.3154,0.3119,0.3063,0.3031,0.3006,0.305,0.3,0.3019,0.3006,0.3007,0.3006,0.3062,0.3064,0.3065,0.3067,0,0.3599,0.3568,0.3546,0.3514,0.3495,0.3465,0.3432,0.3427,0.3348,0.3333,0.3309,0.3288,0.3246,0.3218,0.3177,0.3144,0.3092,0.3082,0.3088,0.3108,0.3131,0.3118,0.2974,0.308,0.3079,0.3078,0.3077,0.3077,0.3694,0.3695,0.3647,0.3624,0.3592,0.3562,0.3556,0.351,0.3488,0.345,0.3409,0.3389,0.334,0.328,0.3251,0.3232,0.3205,0.3213,0.3215,0.3218,0.3227,0.3134,0.3225,0.3224,0.3224,0.3223,0.3223,0,0.381,0.3775,0.3755,0.371,0.3692,0.3645,0.3605,0.3592,0.3576,0.3536,0.3511,0.3481,0.3453,0.3394,0.336,0.3357,0.3332,0.335,0.335,0.3343,0.3253,0.3252,0.3371,0.3371,0.3371,0.3371,0.3371,0.3371,0.3868,0.3867,0.383,0.3812,0.3776,0.3756,0.3737,0.3709,0.3676,0.3647,0.3624,0.3586,0.3537,0.3499,0.347,0.3453,0.3444,0.347,0.3446,0.3363,0.3349,0.3336,0.3334,0.3469,0.3469,0.3537,0.3537,0.3538]}]]